Dewpoint
-2 -2 -2 -1 -1 -1 -1 -2 -2 -2 -3 -5 -9 -18 -26 -26 -19 -18 -20 -21 -20 -20 -19 -16 -14 -13 -14 -16 -14 -10 -9 -9 -8 -9 -9 -10 -9 -10 -10 -8 -8 -9 -8
-2 -2 -2 -1 -1 -1 -2 -2 -2 -2 -4 -9 -17 -25 -23 -17 -18 -20 -19 -19 -19 -19 -15 -12 -12 -12 -14 -14 -11 -9 -8 -8 -8 -7 -9 -9 -10 -9 -7 -8 -11 -12 -11
-2 -2 -2 -2 -2 -2 -2 -1 -2 -4 -8 -17 -24 -21 -16 -17 -19 -18 -18 -19 -19 -16 -12 -11 -12 -12 -13 -12 -10 -9 -7 -7 -8 -8 -9 -9 -10 -7 -8 -12 -12 -12 -14
-2 -3 -3 -2 -3 -3 -1 -2 -3 -8 -15 -22 -19 -15 -16 -18 -17 -18 -19 -20 -17 -13 -12 -12 -12 -12 -12 -9 -9 -8 -9 -11 -10 -9 -7 -9 -7 -9 -10 -11 -12 -12 -12
-3 -3 -4 -3 -3 -2 -2 -4 -7 -15 -21 -19 -15 -15 -16 -16 -16 -18 -18 -14 -13 -13 -13 -12 -11 -11 -10 -9 -9 -9 -8 -8 -7 -7 -9 -8 -8 -11 -11 -11 -10 -11 -10
-2 -4 -4 -4 -2 -2 -4 -6 -13 -19 -20 -15 -14 -14 -15 -15 -17 -19 -15 -13 -13 -12 -12 -11 -11 -11 -10 -9 -9 -9 -8 -8 -8 -8 -8 -10 -10 -10 -11 -10 -9 -9 -11
-3 -4 -4 -3 -3 -5 -7 -12 -19 -20 -16 -14 -13 -14 -14 -16 -19 -19 -14 -12 -11 -11 -11 -11 -10 -10 -10 -11 -11 -8 -8 -8 -8 -9 -11 -11 -10 -10 -9 -10 -10 -10 -10
-4 -4 -3 -3 -5 -7 -11 -18 -21 -19 -14 -13 -13 -14 -16 -18 -19 -20 -16 -12 -12 -12 -11 -11 -10 -11 -13 -10 -9 -8 -8 -11 -14 -12 -10 -10 -10 -10 -11 -10 -11 -10 -11
-4 -3 -3 -4 -6 -9 -17 -21 -21 -15 -14 -13 -13 -15 -18 -20 -19 -18 -10 -11 -11 -12 -12 -12 -11 -14 -10 -9 -8 -9 -10 -12 -14 -10 -10 -11 -12 -11 -11 -11 -11 -11 -11
-2 -3 -4 -6 -8 -16 -20 -23 -17 -15 -14 -13 -15 -18 -20 -20 -19 -16 -9 -9 -10 -11 -11 -10 -12 -10 -9 -9 -9 -10 -12 -12 -10 -11 -13 -15 -14 -13 -11 -11 -12 -12 -11
-2 -4 -5 -7 -16 -19 -24 -20 -16 -14 -13 -14 -18 -21 -23 -19 -16 -13 -9 -9 -9 -9 -9 -10 -11 -9 -9 -10 -11 -12 -11 -10 -11 -13 -14 -13 -12 -12 -12 -11 -11 -11 -12
-3 -5 -8 -15 -18 -23 -23 -18 -15 -13 -14 -18 -21 -23 -20 -17 -14 -13 -9 -9 -9 -9 -9 -11 -10 -9 -11 -11 -12 -11 -11 -11 -13 -13 -12 -12 -12 -12 -11 -11 -11 -11 -11
-5 -7 -13 -17 -22 -24 -19 -15 -13 -14 -18 -21 -21 -17 -16 -15 -14 -12 -9 -9 -10 -10 -10 -9 -10 -11 -12 -14 -13 -11 -11 -13 -13 -12 -12 -12 -11 -11 -11 -11 -12 -11 -11
-7 -12 -16 -22 -25 -19 -15 -13 -14 -18 -21 -21 -17 -14 -13 -13 -12 -10 -9 -11 -10 -9 -10 -10 -12 -14 -14 -13 -14 -13 -13 -12 -12 -12 -12 -12 -11 -11 -11 -11 -11 -11 -11
-12 -16 -21 -23 -20 -15 -13 -15 -17 -21 -21 -14 -13 -12 -11 -11 -10 -10 -10 -9 -10 -10 -10 -12 -15 -14 -15 -14 -13 -13 -13 -12 -12 -12 -12 -11 -11 -11 -11 -11 -11 -11 -10
-16 -20 -21 -18 -15 -13 -15 -17 -21 -22 -22 -21 -19 -13 -12 -11 -11 -10 -10 -10 -10 -11 -12 -14 -13 -13 -13 -13 -13 -13 -13 -13 -12 -12 -11 -11 -11 -10 -10 -10 -10 -10 -10
-20 -20 -17 -14 -13 -15 -17 -20 -21 -24 -22 -22 -20 -18 -12 -11 -11 -10 -11 -11 -13 -12 -14 -13 -13 -13 -13 -13 -13 -12 -13 -12 -12 -12 -11 -10 -10 -10 -10 -10 -10 -10 -10
-19 -16 -14 -13 -15 -18 -20 -21 -21 -20 -20 -21 -19 -17 -16 -12 -11 -11 -11 -13 -15 -14 -13 -13 -13 -13 -13 -12 -12 -12 -12 -12 -11 -11 -10 -9 -10 -10 -10 -10 -10 -10 -10
-16 -14 -13 -15 -18 -20 -21 -22 -21 -20 -20 -19 -18 -18 -16 -13 -11 -13 -13 -14 -13 -13 -14 -14 -14 -13 -12 -12 -12 -12 -12 -11 -11 -10 -9 -9 -9 -9 -9 -9 -10 -10 -10
-14 -12 -15 -18 -22 -22 -22 -22 -21 -20 -19 -18 -18 -16 -14 -12 -13 -15 -15 -14 -13 -14 -14 -14 -14 -12 -11 -11 -11 -11 -11 -10 -10 -9 -9 -8 -8 -9 -9 -9 -9 -9 -9
-12 -15 -18 -23 -22 -22 -22 -22 -20 -19 -18 -17 -17 -16 -12 -12 -14 -14 -14 -14 -14 -14 -14 -14 -12 -11 -11 -11 -11 -10 -10 -10 -9 -8 -8 -8 -8 -8 -9 -9 -9 -9 -9
-15 -19 -24 -24 -23 -23 -22 -21 -19 -18 -18 -17 -16 -16 -13 -14 -15 -14 -14 -14 -14 -14 -14 -12 -11 -11 -11 -10 -10 -10 -9 -9 -8 -7 -7 -7 -8 -8 -8 -8 -8 -8 -8
-19 -24 -24 -24 -23 -22 -21 -20 -19 -18 -17 -16 -15 -15 -15 -15 -15 -14 -14 -14 -14 -15 -14 -11 -11 -11 -10 -9 -9 -9 -8 -8 -7 -7 -7 -8 -8 -8 -8 -8 -8 -8 -8
-24 -24 -24 -23 -23 -21 -21 -19 -18 -17 -16 -15 -15 -15 -15 -15 -15 -14 -14 -14 -14 -15 -12 -11 -10 -10 -9 -9 -8 -8 -7 -7 -7 -7 -7 -7 -7 -8 -8 -7 -7 -7 -8
-24 -24 -24 -23 -23 -21 -20 -19 -17 -16 -16 -15 -15 -15 -15 -15 -14 -14 -14 -14 -15 -15 -11 -11 -10 -10 -9 -8 -8 -7 -7 -7 -7 -7 -7 -7 -7 -7 -7 -7 -7 -7 -7
-24 -24 -24 -24 -23 -20 -19 -17 -16 -16 -15 -15 -14 -15 -15 -14 -14 -14 -14 -15 -16 -13 -11 -10 -10 -9 -8 -8 -7 -7 -7 -7 -7 -7 -7 -7 -8 -8 -7 -7 -8 -7 -7
Wind_Speed
23 20 18 16 13 11 8 6 7 10 13 15 17 16 17 19 22 24 25 27 28 29 30 32 34 36 39 37 30 25 25 27 35 47 43 44 42 43 45 40 37 37 33
20 18 16 14 11 9 7 7 8 11 14 15 15 16 18 21 23 25 27 27 29 31 31 32 34 37 38 32 26 25 28 30 32 35 44 46 46 44 36 39 45 46 41
19 17 15 12 10 8 7 8 10 12 14 14 15 18 20 23 25 26 27 29 30 30 31 33 36 37 35 28 26 28 28 27 31 34 43 44 49 38 37 46 44 44 43
17 15 13 10 9 7 7 8 10 12 13 13 16 19 22 23 25 28 29 30 30 30 31 34 34 33 30 28 27 27 32 38 38 39 38 42 34 42 40 41 46 42 46
15 14 11 10 8 7 7 8 11 11 12 15 19 21 22 25 27 29 29 29 30 31 33 33 32 30 28 25 26 32 34 37 38 34 43 37 32 42 38 41 42 45 42
14 12 11 9 7 7 8 9 10 11 13 17 20 23 24 26 28 28 28 29 31 31 31 29 30 31 29 27 29 30 30 36 40 40 32 41 40 39 42 42 41 30 51
12 11 10 7 7 7 9 10 10 12 16 19 21 24 26 28 29 29 27 28 29 30 30 31 30 29 28 33 33 33 36 36 30 33 36 37 39 41 39 41 44 41 41
11 10 8 6 6 8 9 9 10 14 18 21 23 25 28 29 28 29 29 28 29 28 25 26 29 31 34 31 35 38 35 33 41 36 33 36 38 40 42 39 40 42 40
11 8 6 5 7 8 8 9 13 17 20 23 25 27 29 28 28 28 25 28 28 27 25 26 29 34 32 31 36 32 38 42 37 30 30 34 37 32 31 33 37 37 38
9 6 4 6 7 7 8 11 16 20 22 25 27 27 27 27 27 26 23 25 28 29 31 32 34 32 32 30 32 38 42 36 35 36 41 36 30 31 28 28 32 35 37
6 4 5 6 6 7 10 14 19 22 24 27 28 27 27 28 27 24 20 23 28 31 33 35 39 33 26 35 32 32 29 33 34 35 31 34 35 34 31 29 29 30 36
4 4 5 5 6 9 12 17 20 24 27 28 29 29 28 28 25 22 21 23 24 29 31 36 31 29 32 31 27 25 27 29 28 32 33 34 35 35 34 31 29 27 26
3 4 4 5 7 11 16 19 22 25 27 28 28 29 30 28 26 23 26 24 26 28 31 29 32 30 29 28 26 25 27 30 30 33 34 34 34 34 34 34 31 28 28
4 3 4 6 10 13 16 20 23 25 26 26 27 28 28 28 26 27 28 29 30 31 31 34 35 29 27 27 28 30 31 29 28 31 32 33 34 34 34 32 33 31 33
2 3 6 9 13 16 18 21 23 23 22 22 23 23 26 27 26 26 26 29 29 31 30 32 29 31 32 31 31 32 33 31 32 31 31 34 34 34 34 31 31 30 31
3 5 8 12 15 18 20 21 20 22 22 20 20 20 22 21 24 24 25 27 29 25 26 26 29 31 31 32 33 36 34 32 31 30 31 33 34 34 34 33 30 29 30
4 8 11 14 17 20 21 23 25 24 22 22 21 21 20 22 22 23 26 27 26 21 24 26 28 30 31 32 34 34 35 33 30 29 31 33 33 33 33 32 31 29 28
7 10 12 16 18 20 20 21 23 25 27 27 23 22 23 22 21 23 26 25 26 24 24 26 29 30 30 32 34 34 33 32 29 30 31 32 33 33 32 30 29 27 26
9 11 14 17 18 18 19 21 22 24 26 27 27 26 24 23 22 28 23 24 24 26 28 28 28 29 30 32 33 32 31 30 30 29 30 33 32 31 29 27 26 23 20
10 13 16 17 17 18 20 22 23 24 25 25 26 28 26 28 30 28 26 25 25 27 27 28 28 29 31 32 31 30 30 29 28 28 30 33 32 29 27 25 23 20 18
12 14 16 17 18 19 21 22 23 23 23 24 25 26 21 24 28 27 26 26 26 27 28 28 28 30 32 31 29 30 29 28 26 27 32 33 29 27 23 22 18 15 15
13 16 17 18 19 20 21 21 21 21 22 24 26 26 23 26 26 26 26 26 26 26 26 26 28 32 31 29 29 29 27 25 25 30 33 30 26 24 21 18 15 12 13
15 17 18 18 20 21 21 21 21 22 23 24 25 28 27 26 26 25 26 26 26 26 24 25 28 32 28 27 25 24 25 25 28 31 31 27 23 20 18 13 13 13 13
17 18 19 19 20 21 21 21 21 21 23 25 27 27 26 26 25 25 25 25 26 24 22 25 28 31 29 24 22 22 23 25 26 29 25 19 16 14 14 9 15 14 10
18 18 19 20 21 21 21 21 21 22 25 27 27 27 26 25 24 25 24 25 25 23 24 24 29 30 26 21 20 22 23 24 24 20 13 14 13 12 12 10 12 13 12
18 19 20 21 21 21 21 21 22 24 26 27 27 26 25 24 25 24 23 24 23 22 24 25 29 27 22 19 21 23 25 26 18 12 13 15 12 11 11 10 9 11 13
Wind_Direction
194 198 203 207 211 219 231 253 288 309 316 319 321 321 320 322 324 324 325 326 327 325 324 322 321 322 322 320 318 314 311 310 304 302 304 308 310 313 313 309 309 307 303
197 201 204 210 215 225 240 272 301 313 316 319 319 321 323 324 324 327 327 326 326 324 323 321 322 323 323 321 317 313 312 310 307 300 305 311 311 312 302 307 314 310 307
202 205 209 213 220 231 256 288 305 312 316 318 321 324 324 326 327 327 325 326 324 323 322 322 321 324 324 321 319 318 315 311 307 302 300 304 309 304 309 316 312 309 311
205 209 213 217 224 243 272 294 308 315 317 320 323 325 327 326 326 326 326 324 324 322 320 318 320 324 325 324 319 313 313 310 307 304 303 311 302 312 314 311 311 312 311
212 215 216 221 233 258 277 298 313 317 321 325 326 326 327 326 327 326 325 323 322 319 317 317 318 323 318 314 311 311 311 307 308 310 304 296 310 313 310 310 306 308 305
215 217 217 224 244 262 284 306 314 315 322 326 327 329 329 326 325 324 325 324 321 318 317 318 317 318 322 313 312 312 309 310 307 303 314 312 308 307 310 306 308 309 310
210 211 216 229 251 276 300 310 312 319 325 329 329 328 328 326 327 329 329 324 315 315 315 317 319 321 320 320 321 313 309 306 307 316 310 308 302 313 314 310 305 303 301
203 206 215 235 267 294 305 308 316 322 328 331 329 329 328 330 330 329 332 324 320 321 324 326 326 327 326 321 316 312 316 318 321 317 307 306 309 308 305 302 302 303 303
194 199 216 257 287 299 300 308 318 324 328 330 330 330 330 332 333 335 334 331 332 333 333 333 330 329 326 320 314 328 324 317 321 317 310 307 307 307 306 307 307 308 304
186 203 245 281 295 295 302 313 323 327 329 328 329 330 331 333 339 340 334 332 331 334 332 332 333 327 320 324 329 323 317 323 323 317 313 314 322 326 317 313 313 307 304
190 230 273 289 288 294 309 320 326 326 326 328 330 331 334 340 342 343 336 333 331 327 326 329 331 328 330 323 322 317 323 319 315 316 327 331 329 328 328 326 323 318 310
215 257 278 275 289 307 316 322 325 328 329 331 332 335 339 340 344 349 337 332 328 327 326 324 324 324 324 324 325 327 322 320 330 335 332 327 330 333 333 332 330 324 318
237 261 268 292 311 316 321 326 328 330 332 334 338 338 336 339 343 350 343 334 327 324 325 321 323 325 326 331 335 331 332 341 337 333 328 332 336 335 336 338 335 333 329
238 259 293 307 313 322 326 327 332 336 336 338 336 333 334 336 342 345 335 332 332 331 334 320 321 326 335 338 344 346 346 339 331 331 333 337 340 340 340 342 340 341 336
243 287 305 317 324 325 328 334 334 336 339 334 332 330 331 332 336 330 331 331 330 326 321 319 332 341 343 345 345 346 344 342 339 340 338 341 344 344 344 347 346 343 339
279 307 323 327 326 329 330 327 331 336 340 339 335 333 330 327 327 332 331 327 325 330 323 336 337 339 337 340 341 341 342 341 342 339 341 344 343 343 345 347 349 347 344
320 328 328 329 330 330 330 332 334 336 339 341 341 340 335 329 333 334 328 329 328 334 341 338 336 336 339 341 341 339 338 340 339 341 343 343 345 347 347 348 350 348 350
328 328 330 331 330 329 330 333 334 337 339 342 345 345 340 335 340 330 334 330 343 348 343 337 339 342 342 340 340 339 339 340 342 343 341 345 349 348 348 348 350 347 347
327 329 329 328 327 327 328 331 335 337 338 339 341 344 346 348 333 335 343 347 345 342 343 341 343 342 341 340 339 338 338 340 339 339 344 347 351 351 350 349 348 349 351
327 326 324 324 325 327 332 335 335 337 337 337 339 342 348 340 332 343 347 348 345 343 343 341 343 343 342 341 339 339 339 341 343 344 345 349 352 352 349 348 346 348 357
321 322 323 325 327 331 334 334 335 333 333 335 338 340 339 327 336 342 346 346 344 343 342 342 344 343 343 342 340 339 340 341 342 342 346 349 350 349 350 348 343 352 359
318 322 325 327 328 330 331 331 330 330 333 334 336 338 337 336 341 342 343 343 343 343 344 343 344 345 344 343 342 340 339 340 342 344 345 347 346 347 348 346 358 1 2
320 322 325 326 326 327 328 329 330 332 332 333 335 337 338 338 340 340 341 341 342 345 346 346 346 347 346 344 342 342 341 343 342 342 343 344 344 345 342 352 0 360 5
320 324 325 324 325 326 327 328 329 328 330 333 333 334 335 336 337 339 340 341 343 345 347 348 348 349 348 347 350 351 346 344 342 343 342 337 342 352 2 9 9 8 22
322 322 322 323 325 325 324 324 326 327 329 330 331 333 333 333 337 338 339 342 343 346 350 350 352 353 352 356 357 354 349 349 344 343 352 346 353 354 3 10 23 26 32
321 321 322 323 322 321 322 322 324 324 325 326 328 329 330 334 335 336 340 342 344 348 350 352 356 357 359 1 360 359 358 354 354 10 3 4 5 6 10 13 24 33 39
Height
1470 1472 1474 1476 1477 1479 1479 1480 1479 1478 1477 1474 1472 1468 1465 1461 1458 1453 1449 1445 1441 1437 1433 1428 1424 1419 1413 1407 1402 1398 1394 1392 1384 1369 1368 1364 1359 1356 1350 1346 1343 1339 1335
1469 1471 1472 1474 1476 1477 1478 1477 1476 1475 1473 1471 1468 1464 1461 1457 1453 1449 1444 1440 1435 1431 1426 1422 1418 1413 1407 1402 1397 1392 1388 1384 1379 1369 1359 1355 1351 1346 1341 1336 1331 1327 1322
1467 1469 1471 1473 1474 1475 1475 1474 1474 1472 1470 1467 1464 1460 1456 1452 1448 1444 1440 1435 1430 1426 1421 1416 1412 1406 1400 1396 1392 1387 1382 1377 1372 1366 1354 1349 1342 1338 1331 1327 1321 1315 1309
1466 1468 1470 1471 1473 1473 1473 1472 1470 1468 1466 1463 1460 1456 1452 1448 1443 1439 1434 1429 1425 1420 1416 1411 1407 1402 1396 1390 1386 1382 1377 1370 1364 1357 1349 1342 1336 1331 1326 1319 1308 1305 1296
1464 1466 1468 1470 1470 1470 1470 1469 1467 1465 1462 1459 1456 1452 1448 1443 1438 1433 1428 1423 1419 1414 1411 1406 1402 1397 1392 1388 1383 1376 1371 1364 1356 1350 1342 1334 1329 1323 1318 1311 1302 1294 1288
1463 1465 1466 1467 1468 1468 1467 1466 1464 1462 1459 1456 1452 1447 1443 1439 1434 1429 1423 1418 1413 1409 1404 1400 1395 1390 1385 1381 1377 1372 1366 1358 1351 1344 1335 1329 1323 1317 1310 1302 1295 1286 1277
1461 1463 1464 1465 1466 1465 1464 1462 1461 1459 1456 1452 1448 1443 1439 1434 1428 1423 1417 1412 1407 1403 1398 1393 1388 1384 1379 1374 1368 1363 1357 1352 1345 1338 1330 1324 1316 1310 1304 1296 1290 1283 1275
1459 1461 1462 1463 1463 1462 1461 1460 1457 1455 1452 1448 1444 1439 1434 1429 1422 1417 1411 1406 1402 1397 1393 1388 1383 1377 1372 1367 1360 1354 1347 1342 1336 1330 1325 1317 1311 1305 1299 1290 1282 1274 1267
1458 1459 1460 1461 1460 1459 1458 1457 1454 1451 1448 1444 1439 1434 1428 1423 1417 1412 1407 1401 1396 1392 1388 1384 1379 1373 1367 1362 1354 1346 1339 1333 1328 1322 1317 1311 1304 1297 1291 1283 1275 1268 1258
1456 1458 1458 1458 1457 1457 1456 1453 1451 1447 1443 1439 1434 1430 1424 1418 1413 1408 1404 1399 1393 1387 1382 1378 1374 1368 1362 1355 1349 1341 1333 1326 1319 1312 1306 1300 1294 1287 1283 1277 1270 1262 1253
1455 1456 1456 1455 1455 1454 1452 1450 1447 1443 1439 1434 1429 1425 1419 1414 1409 1405 1401 1397 1390 1383 1378 1372 1367 1362 1356 1351 1345 1336 1329 1323 1314 1307 1299 1292 1287 1281 1275 1269 1263 1257 1248
1453 1453 1453 1453 1453 1451 1449 1447 1443 1438 1433 1428 1422 1418 1414 1410 1406 1401 1398 1394 1389 1382 1375 1369 1363 1358 1351 1345 1337 1332 1325 1318 1309 1302 1295 1288 1281 1274 1268 1262 1255 1249 1243
1451 1452 1452 1451 1450 1448 1445 1442 1438 1433 1427 1422 1417 1413 1408 1404 1401 1397 1392 1389 1384 1378 1372 1364 1358 1352 1345 1337 1331 1326 1320 1311 1305 1299 1292 1284 1278 1270 1262 1255 1249 1243 1235
1450 1450 1449 1449 1447 1445 1441 1437 1433 1428 1423 1419 1414 1409 1405 1400 1396 1392 1388 1383 1378 1371 1366 1358 1353 1346 1340 1334 1326 1320 1314 1309 1303 1296 1288 1281 1274 1266 1259 1253 1244 1237 1230
1448 1447 1447 1445 1443 1441 1437 1433 1429 1426 1422 1416 1412 1407 1401 1396 1393 1391 1385 1379 1373 1367 1360 1353 1347 1340 1333 1327 1322 1316 1311 1304 1298 1292 1285 1278 1270 1263 1256 1249 1242 1235 1228
1446 1445 1444 1442 1440 1437 1433 1431 1428 1423 1419 1415 1410 1405 1399 1396 1391 1386 1381 1375 1369 1363 1355 1349 1343 1338 1332 1325 1319 1312 1307 1301 1295 1289 1282 1276 1269 1262 1253 1247 1241 1234 1227
1443 1442 1441 1439 1436 1433 1429 1426 1421 1418 1415 1411 1406 1401 1397 1392 1386 1382 1376 1370 1363 1358 1352 1347 1341 1335 1329 1323 1316 1310 1303 1298 1292 1286 1280 1273 1267 1260 1253 1245 1239 1233 1226
1441 1440 1438 1435 1433 1430 1426 1422 1418 1413 1408 1404 1401 1397 1392 1387 1383 1378 1371 1364 1358 1353 1350 1344 1338 1332 1326 1320 1314 1307 1300 1294 1288 1283 1277 1271 1264 1258 1251 1245 1239 1233 1228
1439 1437 1435 1433 1430 1426 1423 1419 1415 1410 1405 1401 1396 1392 1388 1382 1379 1373 1367 1361 1356 1351 1346 1340 1335 1329 1323 1317 1311 1304 1298 1292 1286 1280 1274 1268 1262 1256 1250 1245 1239 1234 1229
1436 1434 1432 1430 1427 1423 1420 1416 1411 1407 1402 1398 1393 1388 1382 1379 1373 1367 1363 1358 1354 1349 1343 1337 1332 1326 1321 1314 1308 1301 1295 1289 1283 1277 1272 1266 1260 1255 1250 1244 1240 1235 1230
1434 1432 1429 1427 1423 1420 1416 1412 1408 1404 1399 1395 1390 1386 1383 1378 1371 1365 1360 1355 1351 1345 1340 1334 1329 1323 1317 1311 1305 1298 1292 1286 1281 1275 1270 1264 1259 1254 1250 1245 1240 1236 1232
1431 1428 1426 1423 1419 1416 1412 1409 1405 1401 1396 1391 1387 1382 1378 1373 1368 1363 1358 1353 1348 1343 1338 1332 1326 1321 1314 1308 1301 1295 1290 1284 1279 1273 1268 1262 1258 1253 1249 1245 1241 1237 1234
1427 1425 1422 1419 1415 1412 1409 1405 1401 1397 1393 1388 1383 1379 1374 1369 1364 1359 1354 1350 1345 1340 1335 1330 1324 1318 1312 1305 1300 1294 1287 1282 1277 1271 1265 1260 1256 1253 1249 1245 1242 1239 1235
1424 1421 1418 1415 1412 1408 1404 1400 1397 1394 1389 1385 1380 1375 1371 1366 1361 1356 1351 1347 1342 1337 1333 1327 1322 1315 1308 1302 1297 1292 1287 1281 1275 1268 1264 1261 1257 1254 1250 1247 1244 1240 1238
1420 1417 1414 1411 1407 1403 1400 1396 1393 1389 1385 1381 1376 1371 1367 1362 1358 1353 1348 1344 1339 1334 1330 1325 1320 1313 1306 1300 1296 1291 1285 1279 1273 1269 1265 1261 1258 1255 1251 1249 1246 1243 1240
1416 1413 1409 1406 1403 1400 1396 1392 1389 1385 1380 1376 1372 1368 1363 1358 1354 1350 1345 1341 1337 1332 1328 1323 1317 1311 1305 1299 1295 1289 1283 1278 1273 1269 1266 1262 1259 1256 1253 1250 1248 1246 1243